TimePDT,TemperatureF,Dew PointF,Humidity,Sea Level PressureIn,VisibilityMPH,Wind Direction,Wind SpeedMPH,Gust SpeedMPH,PrecipitationIn,Events,Conditions,WindDirDegrees,DateUTC
12:08 AM,48.2,48.2,100,29.99,10.0,Calm,Calm,-,N/A,Rain,Light Rain,0,2013-05-24 07:08:00
12:58 AM,48.0,47.7,99,30.00,10.0,North,2.3,-,0.01,Rain,Light Rain,10,2013-05-24 07:58:00
1:39 AM,46.4,46.4,100,29.98,10.0,NE,2.3,-,N/A,,Overcast,50,2013-05-24 08:39:00
1:58 AM,47.5,47.1,99,30.00,10.0,Calm,Calm,-,0.01,,Overcast,0,2013-05-24 08:58:00
2:58 AM,47.3,47.1,99,30.00,10.0,Calm,Calm,-,N/A,,Overcast,0,2013-05-24 09:58:00
3:34 AM,46.4,46.4,100,29.98,10.0,SSE,1.2,-,N/A,,Mostly Cloudy,150,2013-05-24 10:34:00
3:37 AM,46.4,46.4,100,29.98,10.0,Calm,Calm,-,N/A,Rain,Light Rain,0,2013-05-24 10:37:00
3:51 AM,46.4,46.4,100,29.98,10.0,South,3.5,-,N/A,Rain,Light Rain,170,2013-05-24 10:51:00
3:55 AM,46.4,46.4,100,29.98,10.0,SSE,1.2,-,N/A,,Mostly Cloudy,160,2013-05-24 10:55:00
3:58 AM,46.4,46.0,99,30.00,10.0,Calm,Calm,-,0.00,,Mostly Cloudy,0,2013-05-24 10:58:00
4:48 AM,46.4,46.4,100,29.99,5.0,Calm,Calm,-,N/A,,Overcast,0,2013-05-24 11:48:00
4:58 AM,46.4,46.2,99,30.01,10.0,Calm,Calm,-,N/A,,Overcast,0,2013-05-24 11:58:00
5:28 AM,46.4,44.6,93,29.99,2.0,Calm,Calm,-,N/A,,Mostly Cloudy,0,2013-05-24 12:28:00
5:33 AM,44.6,44.6,100,29.99,1.0,North,1.2,-,N/A,,Mostly Cloudy,350,2013-05-24 12:33:00
5:38 AM,46.4,46.4,100,29.99,1.5,NNW,1.2,-,N/A,,Mostly Cloudy,340,2013-05-24 12:38:00
5:43 AM,46.4,46.4,100,30.00,2.5,NNW,3.5,-,N/A,,Mostly Cloudy,340,2013-05-24 12:43:00
5:48 AM,46.4,46.4,100,30.00,2.0,North,2.3,-,N/A,,Mostly Cloudy,350,2013-05-24 12:48:00
5:53 AM,46.4,46.4,100,30.00,2.5,NNW,1.2,-,N/A,,Mostly Cloudy,340,2013-05-24 12:53:00
5:58 AM,46.4,44.6,93,30.02,1.2,North,-9999.0,-,N/A,,Mostly Cloudy,0,2013-05-24 12:58:00
6:03 AM,44.6,44.6,100,30.00,0.8,Calm,Calm,-,N/A,,Mostly Cloudy,0,2013-05-24 13:03:00
6:08 AM,44.6,44.6,100,30.00,0.5,Calm,Calm,-,N/A,Fog,Fog,0,2013-05-24 13:08:00
6:13 AM,44.6,44.6,100,30.00,0.8,Calm,Calm,-,N/A,,Overcast,0,2013-05-24 13:13:00
6:18 AM,44.6,44.6,100,30.00,1.5,Calm,Calm,-,N/A,,Overcast,0,2013-05-24 13:18:00
6:23 AM,44.6,44.6,100,30.00,6.0,Calm,Calm,-,N/A,,Overcast,0,2013-05-24 13:23:00
6:43 AM,46.4,46.4,100,30.01,10.0,Calm,Calm,-,N/A,,Overcast,0,2013-05-24 13:43:00
6:58 AM,46.9,46.8,99,30.02,10.0,Calm,Calm,-,N/A,,Overcast,0,2013-05-24 13:58:00
7:03 AM,46.4,46.4,100,30.00,10.0,Calm,Calm,-,N/A,,Overcast,0,2013-05-24 14:03:00
7:43 AM,48.2,46.4,93,30.01,10.0,NNW,1.2,-,N/A,,Overcast,330,2013-05-24 14:43:00
7:53 AM,50.0,46.4,87,30.02,10.0,Calm,Calm,-,N/A,,Overcast,0,2013-05-24 14:53:00
7:58 AM,49.1,45.5,87,30.04,10.0,Calm,Calm,-,N/A,,Overcast,0,2013-05-24 14:58:00
8:28 AM,50.0,46.4,87,30.02,10.0,NNE,1.2,-,N/A,,Overcast,30,2013-05-24 15:28:00
8:43 AM,50.0,46.4,87,30.02,10.0,NE,2.3,-,N/A,,Overcast,50,2013-05-24 15:43:00
8:58 AM,50.7,46.8,86,30.04,10.0,NNE,4.6,-,N/A,,Overcast,30,2013-05-24 15:58:00
9:03 AM,50.0,46.4,87,30.02,10.0,East,3.5,-,N/A,,Overcast,80,2013-05-24 16:03:00
9:53 AM,51.8,46.4,82,30.03,10.0,East,5.8,-,N/A,,Overcast,90,2013-05-24 16:53:00
9:58 AM,52.3,46.6,81,30.05,10.0,SE,4.6,-,N/A,,Overcast,130,2013-05-24 16:58:00
10:13 AM,51.8,46.4,82,30.03,10.0,SW,3.5,-,N/A,,Overcast,220,2013-05-24 17:13:00
10:53 AM,51.8,46.4,82,30.03,10.0,Variable,2.3,-,N/A,,Overcast,0,2013-05-24 17:53:00
10:58 AM,52.5,46.9,81,30.05,10.0,Variable,3.5,-,N/A,,Overcast,0,2013-05-24 17:58:00
11:03 AM,53.6,48.2,82,30.03,10.0,WNW,6.9,-,N/A,,Overcast,300,2013-05-24 18:03:00
11:58 AM,53.1,46.0,77,30.06,10.0,West,4.6,-,N/A,,Overcast,270,2013-05-24 18:58:00
12:58 PM,57.0,46.2,67,30.04,10.0,Variable,2.3,-,N/A,,Mostly Cloudy,0,2013-05-24 19:58:00
1:21 PM,57.2,46.4,67,30.03,10.0,WSW,10.4,-,N/A,Rain,Light Rain,250,2013-05-24 20:21:00
1:40 PM,57.2,48.2,72,30.04,10.0,SW,4.6,-,N/A,,Overcast,230,2013-05-24 20:40:00
1:58 PM,58.6,47.8,67,30.04,10.0,WSW,12.7,-,0.00,,Mostly Cloudy,240,2013-05-24 20:58:00
2:13 PM,57.2,46.4,67,30.04,10.0,SW,6.9,-,N/A,Rain,Light Rain,230,2013-05-24 21:13:00
2:34 PM,55.4,48.2,77,30.04,10.0,Variable,1.2,-,N/A,,Mostly Cloudy,0,2013-05-24 21:34:00
2:58 PM,58.3,46.4,65,30.04,10.0,East,2.3,-,0.00,,Scattered Clouds,100,2013-05-24 21:58:00
3:35 PM,59.0,46.4,63,30.03,10.0,Variable,1.2,-,N/A,Rain,Light Rain,0,2013-05-24 22:35:00
3:56 PM,59.0,46.4,63,30.03,10.0,Variable,2.3,-,N/A,,Mostly Cloudy,0,2013-05-24 22:56:00
3:58 PM,59.0,46.4,63,30.04,10.0,SSW,3.5,-,0.00,,Mostly Cloudy,200,2013-05-24 22:58:00
3:59 PM,59.0,46.4,63,30.03,10.0,South,3.5,-,N/A,Rain,Light Rain,180,2013-05-24 22:59:00
4:09 PM,57.2,50.0,77,30.03,2.5,SW,3.5,-,N/A,Rain,Heavy Rain,220,2013-05-24 23:09:00
4:14 PM,57.2,50.0,77,30.03,2.5,Variable,2.3,-,N/A,Rain,Light Rain,0,2013-05-24 23:14:00
4:19 PM,57.2,50.0,77,30.03,7.0,WSW,2.3,-,N/A,Rain,Light Rain,240,2013-05-24 23:19:00
4:22 PM,57.2,50.0,77,30.03,10.0,South,1.2,-,N/A,,Mostly Cloudy,170,2013-05-24 23:22:00
4:50 PM,57.2,51.8,82,30.04,10.0,West,13.8,19.6,N/A,Rain,Light Rain,270,2013-05-24 23:50:00
4:58 PM,56.3,51.1,83,30.06,2.5,West,8.1,19.6,0.08,Rain,Heavy Rain,280,2013-05-24 23:58:00
5:03 PM,55.4,51.8,88,30.04,2.0,WNW,6.9,-,N/A,Rain,Heavy Rain,300,2013-05-25 00:03:00
5:08 PM,55.4,50.0,82,30.03,4.0,West,8.1,-,N/A,Rain,Light Rain,280,2013-05-25 00:08:00
5:13 PM,55.4,51.8,88,30.03,10.0,NW,4.6,-,N/A,,Mostly Cloudy,320,2013-05-25 00:13:00
5:31 PM,57.2,51.8,82,30.04,10.0,SW,12.7,17.3,N/A,Rain,Light Rain,220,2013-05-25 00:31:00
5:41 PM,55.4,51.8,88,30.04,2.5,WSW,5.8,-,N/A,Rain,Rain,240,2013-05-25 00:41:00
5:46 PM,53.6,51.8,94,30.04,3.0,WSW,4.6,-,N/A,Rain,Light Rain,240,2013-05-25 00:46:00
5:58 PM,54.9,50.7,86,30.06,10.0,WSW,5.8,-,0.08,Rain,Light Rain,240,2013-05-25 00:58:00
5:59 PM,55.4,50.0,82,30.04,10.0,WSW,5.8,-,N/A,,Overcast,240,2013-05-25 00:59:00
6:44 PM,55.4,50.0,82,30.05,10.0,SSW,8.1,-,N/A,,Overcast,200,2013-05-25 01:44:00
6:47 PM,55.4,50.0,82,30.05,10.0,South,10.4,-,N/A,Rain,Light Rain,180,2013-05-25 01:47:00
6:56 PM,53.6,50.0,88,30.05,9.0,South,10.4,-,N/A,,Overcast,180,2013-05-25 01:56:00
6:58 PM,53.6,50.0,88,30.06,9.0,South,10.4,-,0.00,,Overcast,190,2013-05-25 01:58:00
7:00 PM,53.6,50.0,88,30.05,7.0,SSW,10.4,-,N/A,Rain,Light Rain,200,2013-05-25 02:00:00
7:23 PM,51.8,50.0,94,30.05,10.0,South,9.2,-,N/A,,Overcast,190,2013-05-25 02:23:00
7:32 PM,51.8,50.0,94,30.06,10.0,SSW,8.1,-,N/A,Rain,Light Rain,200,2013-05-25 02:32:00
7:41 PM,51.8,50.0,94,30.06,10.0,SSW,5.8,-,N/A,,Overcast,200,2013-05-25 02:41:00
7:58 PM,52.5,51.3,95,30.08,10.0,South,6.9,-,0.04,,Overcast,190,2013-05-25 02:58:00
8:43 PM,51.8,51.8,100,30.06,10.0,South,4.6,-,N/A,,Overcast,180,2013-05-25 03:43:00
8:45 PM,51.8,51.8,100,30.06,10.0,South,5.8,-,N/A,Rain,Light Rain,180,2013-05-25 03:45:00
8:50 PM,51.8,51.8,100,30.06,10.0,South,6.9,-,N/A,Rain,Light Rain,190,2013-05-25 03:50:00
8:55 PM,51.8,51.8,100,30.07,10.0,SSW,4.6,-,N/A,Rain,Light Rain,200,2013-05-25 03:55:00
8:58 PM,52.0,51.3,97,30.09,10.0,SSW,5.8,-,0.00,Rain,Light Rain,200,2013-05-25 03:58:00
9:03 PM,51.8,51.8,100,30.07,10.0,SW,6.9,-,N/A,Rain,Light Rain,220,2013-05-25 04:03:00
9:06 PM,51.8,51.8,100,30.07,9.0,Variable,6.9,-,N/A,Rain,Light Rain,0,2013-05-25 04:06:00
9:11 PM,51.8,48.2,88,30.07,9.0,SW,8.1,-,N/A,,Light Drizzle,230,2013-05-25 04:11:00
9:13 PM,51.8,48.2,88,30.07,10.0,SW,6.9,-,N/A,,Overcast,230,2013-05-25 04:13:00
9:23 PM,51.8,48.2,88,30.07,10.0,SW,5.8,-,N/A,,Overcast,220,2013-05-25 04:23:00
9:25 PM,51.8,48.2,88,30.08,10.0,SW,5.8,-,N/A,,Overcast,220,2013-05-25 04:25:00
9:30 PM,51.8,48.2,88,30.08,10.0,SSW,4.6,-,N/A,,Overcast,210,2013-05-25 04:30:00
9:50 PM,51.8,50.0,94,30.08,10.0,South,5.8,-,N/A,,Overcast,180,2013-05-25 04:50:00
9:55 PM,51.8,50.0,94,30.08,10.0,South,5.8,-,N/A,,Overcast,190,2013-05-25 04:55:00
9:58 PM,50.9,50.4,98,30.09,10.0,South,4.6,-,0.00,,Overcast,180,2013-05-25 04:58:00
10:08 PM,50.0,50.0,100,30.08,10.0,South,3.5,-,N/A,,Overcast,180,2013-05-25 05:08:00
10:13 PM,50.0,50.0,100,30.08,10.0,South,4.6,-,N/A,,Overcast,180,2013-05-25 05:13:00
10:18 PM,50.0,50.0,100,30.08,10.0,South,5.8,-,N/A,,Overcast,180,2013-05-25 05:18:00
10:58 PM,50.2,50.0,99,30.09,10.0,South,5.8,-,N/A,,Overcast,170,2013-05-25 05:58:00
11:08 PM,50.0,50.0,100,30.07,10.0,South,4.6,-,N/A,,Overcast,170,2013-05-25 06:08:00
11:38 PM,50.0,50.0,100,30.07,10.0,South,4.6,-,N/A,,Overcast,170,2013-05-25 06:38:00
11:58 PM,49.6,49.3,99,30.08,10.0,South,4.6,-,N/A,,Overcast,170,2013-05-25 06:58:00